Theta_e
285 286 286 287 286 285 285 284 284 283 284 284 281 283 284 283 279 276 282 283 282 284 287 288 289 291 296 295 295 297 297 297 298 298 298 298 298 297 298 297 297 297 297 297 297 298 299 299 300 300 301 300 301 301 302 302 303 304 306 308 307 308 307 306 305 305 305 305 306 309 312 312 311 310 311 311 312 311 310 311 312 312 312 313 313 312 312
286 286 286 286 285 284 284 284 284 285 284 283 284 283 284 284 282 282 283 284 283 287 287 289 290 291 293 293 295 295 294 293 296 297 298 298 298 298 298 298 298 298 298 298 297 298 298 299 300 301 300 300 300 301 301 302 302 303 303 303 304 304 305 305 305 305 304 305 304 304 304 305 305 306 309 311 310 310 311 310 309 309 310 310 310 311 312
283 286 287 286 285 284 282 284 284 284 284 284 284 283 283 283 283 282 283 282 282 287 289 290 291 291 293 293 292 292 293 293 294 294 295 295 298 299 299 299 298 298 298 298 297 297 297 297 297 298 299 300 301 301 301 301 300 301 302 301 301 302 302 302 302 303 303 303 303 302 301 301 302 303 305 309 309 310 310 309 309 309 310 310 310 311 311
278 284 284 284 284 284 283 283 284 284 283 281 283 281 283 279 280 280 282 280 278 285 288 289 290 291 291 290 290 291 292 292 293 293 294 295 295 297 300 299 299 298 297 297 297 296 296 296 296 296 297 297 298 298 297 297 299 299 298 298 298 299 301 301 301 302 302 303 303 303 303 302 303 303 304 305 306 307 308 309 310 309 309 311 310 309 310
274 282 283 282 280 279 276 276 282 285 284 284 284 285 286 285 282 279 277 278 284 285 288 288 288 289 290 290 290 289 290 291 292 293 294 295 296 296 297 300 298 297 298 297 296 296 296 297 298 298 298 297 297 297 297 298 299 298 298 298 298 298 299 298 297 298 299 300 301 300 300 302 302 302 302 303 303 303 305 308 308 308 310 307 309 309 308
273 282 281 279 274 269 269 280 287 287 284 283 282 281 283 285 284 281 283 284 286 285 286 287 287 288 288 289 291 292 290 290 291 293 294 295 296 297 297 298 299 299 299 300 300 298 295 296 296 297 297 298 298 298 298 298 297 297 298 298 297 298 298 299 298 297 297 297 297 298 299 299 298 298 297 298 299 299 300 300 303 304 305 306 306 306 308
274 276 275 272 268 269 280 284 287 289 287 286 283 284 284 284 285 285 284 284 285 285 286 287 287 289 290 291 291 292 292 291 291 291 294 295 295 296 296 297 298 299 299 300 300 302 302 300 297 297 297 297 296 297 296 296 297 296 295 296 297 298 297 298 298 298 297 297 298 298 297 297 296 296 296 296 296 296 296 298 299 300 300 302 304 305 305
273 272 268 266 264 278 285 285 287 289 287 285 284 282 284 285 284 284 283 284 285 285 286 286 288 289 290 290 291 291 292 292 291 291 292 294 296 297 298 298 298 300 302 300 300 300 303 301 298 297 295 295 295 296 295 296 296 296 296 295 296 296 297 296 298 297 297 297 297 297 296 295 296 296 295 297 298 297 295 294 295 296 297 298 299 300 301
272 269 271 272 277 279 280 278 282 283 281 282 279 275 279 284 284 284 283 283 284 285 286 286 286 287 288 287 287 290 291 292 292 292 293 294 297 296 297 298 297 300 300 303 304 302 301 299 299 299 296 295 296 296 296 296 295 295 295 295 295 295 297 296 297 296 297 296 297 296 296 296 297 296 297 297 296 296 295 293 294 295 294 296 297 300 299
274 271 271 270 270 268 272 282 286 287 288 287 284 279 279 285 284 285 284 283 283 284 285 285 285 286 284 282 283 288 289 291 291 291 292 293 295 298 298 299 300 299 298 299 301 301 301 298 300 301 298 298 297 296 297 298 297 297 297 296 296 296 296 296 296 296 296 296 296 296 295 296 295 295 295 295 295 295 298 296 295 294 294 297 294 296 298
275 272 268 267 266 267 277 281 285 287 287 287 284 278 277 283 284 285 284 283 283 283 283 284 285 282 277 279 282 287 288 289 290 290 290 291 292 293 295 296 295 293 294 297 298 298 300 300 302 300 300 299 297 296 296 296 297 296 296 295 296 297 297 296 297 297 296 296 296 296 296 294 295 295 295 296 296 295 295 295 295 293 295 294 293 292 294
275 272 270 271 275 275 282 284 285 286 286 285 280 272 270 282 284 285 283 283 283 283 283 283 283 280 275 279 283 286 287 288 288 289 289 290 290 290 291 292 293 293 295 295 296 294 294 295 296 297 297 298 298 297 297 296 296 295 294 296 295 295 295 295 296 296 295 296 296 295 295 294 294 296 295 296 297 298 295 295 294 291 291 290 289 289 291
277 277 273 276 278 284 286 285 286 286 288 282 272 267 272 281 283 284 284 284 283 283 283 282 280 283 284 285 286 286 287 287 288 288 288 289 289 289 290 291 294 291 292 292 293 294 296 296 297 297 297 297 295 296 296 296 296 297 296 296 296 295 295 295 296 296 296 296 296 295 295 296 295 295 295 296 295 297 296 293 291 291 290 289 289 289 288
276 275 274 274 277 283 286 288 288 286 281 272 270 279 286 285 284 284 285 285 284 283 283 282 283 283 285 288 286 286 286 286 287 287 288 288 289 290 291 292 291 290 290 290 290 290 291 293 294 294 294 294 295 295 295 295 296 298 297 295 295 294 295 295 296 296 295 295 296 297 296 297 296 296 295 295 295 295 293 291 291 290 288 288 288 287 287
276 274 273 273 270 282 289 288 286 285 276 277 284 286 286 287 285 285 286 285 284 283 283 283 283 283 284 284 284 285 285 286 287 287 287 287 287 288 289 290 291 291 290 290 290 290 291 292 293 294 293 292 291 292 292 293 295 294 295 295 295 295 295 295 295 295 295 295 296 298 298 296 296 295 295 296 295 293 292 291 290 289 287 286 286 286 286
273 273 272 273 279 283 289 285 277 280 282 284 285 284 282 285 285 284 284 285 286 285 284 283 283 283 283 285 285 286 287 287 287 287 288 288 288 288 288 288 290 291 290 290 290 290 291 292 292 292 293 293 293 292 292 294 293 293 293 294 294 294 294 295 294 295 296 296 295 295 295 295 294 294 294 294 294 295 293 292 290 289 287 287 286 286 285
276 275 278 282 284 285 285 285 283 284 285 286 286 284 284 283 284 286 285 285 285 285 285 284 283 283 284 284 285 285 286 286 286 287 288 288 288 288 288 289 290 289 289 289 290 290 291 291 291 291 291 291 291 290 291 293 292 293 293 293 293 293 293 293 293 294 294 294 294 294 293 294 293 293 292 293 294 292 293 292 291 290 287 288 287 286 285
282 284 284 285 284 286 286 287 286 285 285 286 285 285 283 284 285 285 285 286 285 286 286 285 284 284 285 285 286 286 287 287 287 288 288 288 288 288 289 288 289 289 289 289 289 289 290 290 291 292 292 291 291 292 292 292 292 293 294 294 293 292 292 292 293 293 294 293 293 293 294 294 294 293 294 294 294 293 292 292 291 291 289 288 286 287 286
278 273 281 281 282 283 284 284 286 286 286 286 286 285 284 284 285 285 285 284 285 285 285 285 285 285 285 285 286 286 286 287 287 287 288 288 288 288 288 289 289 289 289 289 289 289 289 290 290 292 292 292 292 292 292 293 293 293 292 292 293 292 292 292 292 292 292 292 292 293 291 293 293 294 294 293 295 293 292 292 290 289 289 288 287 287 286
271 273 280 282 283 284 285 285 285 285 285 285 285 285 286 285 286 285 286 285 286 285 285 284 284 284 285 284 285 285 286 286 287 287 288 288 288 288 288 288 289 288 288 288 288 289 290 291 290 291 291 292 293 292 292 292 292 291 292 291 291 290 291 291 292 292 292 290 292 290 288 291 292 292 293 293 295 294 294 293 291 290 290 289 288 288 286
277 279 281 282 282 283 284 285 285 285 285 285 285 286 286 286 286 285 286 285 285 284 284 284 285 284 285 285 285 285 286 286 286 286 287 287 287 287 287 288 288 288 289 290 289 289 290 290 290 291 291 292 292 291 292 292 291 292 292 290 290 290 290 290 291 292 294 293 292 289 287 284 284 283 284 286 291 292 292 295 295 293 292 291 290 289 289
269 274 278 280 273 274 281 283 284 285 286 285 285 285 286 285 285 285 284 285 285 285 285 285 285 284 284 285 285 285 286 286 286 287 287 287 287 287 288 289 289 289 290 289 289 290 290 290 290 290 290 291 291 292 292 292 292 292 292 291 290 290 291 291 292 292 293 293 291 289 288 287 286 286 285 287 286 288 290 292 293 293 292 291 291 290 289
271 277 281 281 280 279 281 283 284 286 286 285 285 285 284 284 284 284 284 284 284 284 285 285 284 283 283 283 284 284 284 284 285 286 286 285 285 285 287 287 287 288 288 290 290 289 290 290 289 290 290 291 291 291 291 292 292 291 290 290 289 289 289 290 290 292 292 290 291 289 288 288 288 287 286 286 287 287 288 290 292 292 291 291 290 290 291
280 282 283 283 281 281 282 284 285 286 286 286 285 285 284 284 284 285 284 284 283 283 284 285 285 285 285 285 285 284 284 285 284 284 285 285 285 286 287 286 286 286 287 287 287 287 288 288 289 289 290 290 290 291 291 291 291 290 290 290 289 289 289 289 290 289 290 289 289 289 287 287 287 286 285 285 285 287 287 287 289 290 289 290 290 289 289
280 285 284 284 283 283 285 285 285 285 287 286 284 284 284 284 285 286 284 285 285 285 284 284 285 285 284 284 284 284 284 284 285 285 285 285 284 284 285 285 284 285 285 286 286 286 286 287 287 288 288 289 289 290 290 291 290 290 289 289 289 290 290 290 289 289 288 290 290 290 288 287 286 286 286 286 285 282 285 287 287 287 288 289 288 288 288
284 284 285 284 284 284 284 284 284 284 284 285 284 285 287 288 287 287 286 285 285 285 284 283 283 283 284 283 283 284 284 283 284 285 284 284 284 284 284 283 284 285 285 285 285 285 286 286 286 287 287 288 288 289 290 290 290 290 290 290 290 289 289 290 290 288 287 290 290 290 289 289 288 287 286 286 285 284 283 283 285 286 287 287 288 288 287
285 285 283 282 281 282 284 282 281 284 285 286 285 286 286 286 287 286 286 284 283 283 283 283 284 284 285 284 284 284 284 284 284 284 284 284 284 284 285 285 285 285 285 285 285 285 285 286 286 286 287 288 289 290 290 290 290 289 289 290 289 288 287 288 290 290 289 291 291 290 288 288 287 286 285 284 285 285 285 284 284 283 283 285 286 287 287
284 283 281 279 279 281 282 285 286 285 284 285 285 285 286 286 284 283 282 282 282 282 283 283 284 284 284 284 284 284 284 284 283 284 284 284 285 286 287 287 287 287 287 287 287 287 286 286 287 287 288 290 291 290 290 290 290 290 290 290 289 288 288 289 289 289 289 291 290 289 288 287 286 285 285 284 284 284 284 285 284 283 283 283 284 286 287
283 283 283 283 283 283 284 284 284 284 284 286 287 284 283 282 281 281 280 281 282 283 283 284 285 285 285 284 284 283 283 284 283 284 284 285 286 286 287 287 287 287 287 287 288 288 288 289 289 290 291 293 294 294 294 294 293 293 291 290 290 289 289 287 287 288 289 289 288 288 286 286 285 285 284 284 284 284 284 284 284 284 284 284 285 285 286
283 283 283 283 283 283 283 282 283 285 285 284 282 282 283 281 280 280 280 280 281 281 283 284 284 284 285 284 284 284 283 283 283 284 285 285 286 286 286 286 287 287 287 286 286 286 286 287 288 289 290 292 292 293 293 293 293 293 294 294 292 290 289 289 286 287 287 288 287 286 286 285 285 285 285 285 284 284 284 284 285 285 285 285 286 285 284
283 283 283 283 283 283 284 283 282 281 282 282 281 280 280 280 280 280 280 280 280 282 284 284 284 284 284 284 284 284 284 284 284 284 284 285 285 285 285 285 284 283 284 284 285 286 286 287 288 289 291 292 293 293 293 292 293 293 293 293 294 290 288 288 288 288 287 286 286 286 286 286 285 285 285 285 285 285 285 285 285 285 285 286 286 285 285
281 281 282 282 282 284 284 283 281 280 281 281 280 280 280 280 280 280 280 280 281 282 284 284 284 283 284 284 284 284 283 284 284 284 284 284 284 284 285 285 285 285 285 285 285 285 286 286 287 289 291 292 293 292 292 291 291 291 292 290 293 291 289 288 288 287 286 286 286 285 285 286 285 285 285 285 285 285 285 285 285 285 285 285 285 285 285
280 279 280 281 282 282 283 281 279 280 280 279 278 281 281 281 281 282 282 283 283 283 283 283 284 284 284 284 284 283 283 283 283 283 283 283 284 284 285 285 285 285 285 285 285 286 286 286 287 289 290 293 292 292 292 292 292 292 292 292 292 290 288 288 287 287 287 286 286 286 284 285 286 286 286 286 286 285 285 285 285 285 285 285 285 285 285
281 280 281 280 280 279 280 280 280 279 279 280 280 281 281 282 283 284 284 283 284 283 283 283 283 284 284 284 284 283 283 283 282 282 282 283 283 284 284 285 285 285 285 286 286 286 286 287 287 288 290 292 293 292 292 292 292 291 292 291 290 289 289 288 287 288 287 287 287 287 287 286 287 287 286 286 286 286 285 285 285 285 285 285 284 285 285
283 283 283 284 282 281 282 282 281 281 280 278 279 281 282 282 283 284 284 283 283 283 283 283 283 283 284 283 283 283 283 282 282 283 283 283 283 284 284 285 285 285 286 286 285 285 286 287 287 287 290 292 292 292 292 291 291 291 291 290 290 289 289 289 289 288 288 288 288 288 288 288 287 287 287 287 287 286 286 286 286 285 285 285 284 284 285
285 285 286 285 284 284 284 282 282 282 281 280 280 280 281 283 283 284 283 283 284 285 284 283 283 283 283 283 282 282 282 283 283 283 283 283 284 284 284 284 284 284 284 285 285 285 286 286 286 286 288 290 291 291 291 292 292 291 291 291 290 290 289 289 289 289 289 289 288 288 288 287 287 287 287 287 287 287 286 286 285 285 285 284 284 284 284
286 285 284 284 284 283 282 283 282 282 282 281 281 280 282 282 283 284 285 284 284 285 285 284 283 283 283 283 283 283 283 283 283 283 284 284 284 284 284 283 283 283 283 282 284 285 286 286 285 286 289 289 290 290 289 288 292 292 292 292 291 291 290 290 290 290 289 289 288 288 287 287 287 287 287 287 287 286 286 286 285 285 285 284 284 284 284
285 286 284 283 283 282 282 283 283 283 282 281 280 280 281 281 281 283 283 283 283 283 284 284 284 283 283 283 283 282 282 282 282 282 283 283 284 283 282 282 282 282 282 282 284 285 285 285 285 286 287 288 289 290 289 288 289 291 291 291 290 290 289 289 289 289 289 288 287 288 287 287 286 286 286 287 287 286 286 286 285 285 285 285 284 284 284
283 283 283 282 283 283 282 282 282 282 282 282 281 281 281 282 282 282 282 281 282 283 282 282 282 282 282 283 281 281 280 281 281 282 282 282 283 282 281 282 282 283 283 285 285 285 285 285 285 286 286 286 288 289 288 287 288 291 291 290 290 289 289 289 288 288 288 288 288 287 287 286 286 286 286 286 286 286 286 285 285 285 284 284 284 283 283
283 283 283 282 282 282 282 281 281 281 281 281 280 282 282 281 281 282 281 281 282 282 282 282 281 281 280 280 280 279 279 280 280 281 281 282 282 282 282 282 283 284 285 285 285 285 285 285 285 285 285 286 286 286 287 287 287 289 290 290 289 289 289 289 289 288 288 287 286 286 286 285 285 285 285 285 285 285 285 284 284 284 283 283 282 282 283
284 283 282 282 282 281 282 281 282 283 281 281 280 281 281 281 281 280 281 281 282 283 282 281 281 281 281 280 280 280 280 280 280 280 280 280 280 280 280 280 282 284 284 284 285 285 285 285 285 285 285 285 286 286 286 286 287 286 286 287 287 287 287 287 287 287 286 286 285 285 285 285 284 284 284 283 283 283 283 283 282 282 282 281 281 281 281
284 284 283 283 283 283 283 283 282 282 281 280 280 281 281 280 280 281 282 282 282 282 281 281 282 281 281 281 281 281 280 280 280 280 280 279 279 279 279 280 282 283 284 284 285 285 285 285 285 285 285 285 285 285 285 286 286 286 286 285 285 285 285 284 284 284 284 284 284 284 284 284 283 283 283 283 282 282 282 282 281 281 281 281 280 280 281
283 284 284 284 284 284 284 283 282 283 280 280 281 280 280 280 280 281 281 281 281 281 282 281 282 282 281 280 280 279 279 280 279 280 280 280 280 280 279 280 282 282 283 283 284 284 284 285 285 285 285 285 285 285 285 285 285 285 284 284 285 284 284 284 283 283 283 283 283 283 283 283 282 282 282 281 281 281 281 281 280 280 280 280 280 280 280
284 284 285 285 284 285 284 284 283 281 280 281 281 281 281 281 280 281 280 280 280 281 280 281 281 280 280 279 278 278 278 278 278 279 279 279 280 281 281 281 281 282 283 282 282 283 283 284 284 284 284 285 285 285 285 285 285 285 284 284 284 284 283 283 283 283 283 283 283 282 282 282 282 282 281 281 281 280 280 280 280 279 279 279 280 280 280
284 285 284 285 285 285 284 284 283 282 281 281 281 281 281 280 280 280 281 280 280 280 280 280 280 281 280 280 279 279 278 279 278 279 278 278 278 279 281 282 282 282 282 282 281 281 282 283 284 284 284 284 284 284 284 284 285 285 285 284 284 283 283 283 283 283 283 283 282 282 282 282 281 281 281 281 281 280 280 280 279 280 280 279 279 279 279
285 286 285 285 285 285 286 285 284 282 282 281 281 280 281 281 281 280 280 280 280 279 280 280 280 281 281 280 280 280 279 279 280 280 279 279 278 280 280 282 281 282 282 282 281 281 281 283 283 283 283 283 283 282 282 282 282 283 283 284 284 284 284 283 283 283 283 282 282 282 281 281 281 282 282 281 281 282 282 282 282 282 281 281 281 281 282
286 286 286 286 286 286 285 284 284 282 281 280 279 279 280 281 282 281 281 280 280 280 279 279 280 280 281 281 281 279 278 278 279 279 279 280 281 281 281 282 282 282 281 280 280 280 281 282 282 282 282 282 282 280 280 280 281 281 281 281 281 282 282 282 282 281 281 282 282 282 283 283 282 282 283 283 283 283 283 283 282 282 282 282 282 282 282
286 286 286 286 287 286 285 284 285 282 280 280 280 280 280 281 281 281 281 281 280 280 279 279 280 280 279 280 280 280 280 279 276 278 279 280 279 280 280 279 280 282 281 281 281 282 282 282 282 282 282 281 280 280 280 280 280 280 280 280 280 280 279 279 279 280 281 281 282 282 282 282 282 282 283 282 282 283 283 282 282 281 281 281 281 281 281
286 286 287 287 287 286 286 285 284 283 282 281 281 281 281 282 282 281 281 281 281 279 279 279 279 279 279 280 280 279 279 278 276 276 278 278 279 279 280 282 282 282 281 280 279 279 282 282 282 282 281 281 279 279 279 279 279 280 279 279 279 279 279 279 279 280 281 281 281 281 281 281 281 282 282 282 282 282 281 281 281 281 281 281 281 281 280
287 286 286 285 286 285 285 284 284 284 285 281 281 281 281 281 280 281 281 280 280 280 278 278 278 279 278 278 278 279 279 279 279 279 279 279 279 279 280 280 280 281 281 279 279 279 281 281 281 281 280 278 278 278 279 279 278 278 278 279 279 278 280 281 282 282 281 281 280 280 280 280 281 282 282 281 280 280 280 280 281 281 281 281 280 280 279
284 285 286 286 287 287 288 287 287 287 286 284 282 281 281 281 281 281 281 281 280 279 278 278 278 278 278 278 278 278 279 279 279 281 279 279 279 280 280 280 280 280 279 279 278 278 278 277 277 279 278 278 278 278 278 278 278 278 279 277 278 278 278 280 278 279 279 279 279 279 279 279 279 279 279 280 280 279 279 279 279 279 278 278 279 279 279
285 286 286 287 287 287 288 288 288 288 288 286 283 281 281 281 281 281 280 282 281 280 280 279 278 278 277 278 278 278 278 278 279 278 280 279 278 278 280 281 279 279 278 278 277 278 277 278 280 281 280 277 276 277 280 280 278 277 278 278 279 277 278 278 278 278 278 278 278 278 278 278 278 278 278 278 278 278 277 276 276 275 276 275 275 276 276
Wind_Speed
3 3 2 3 3 3 2 5 4 5 3 7 5 1 1 2 1 2 0 2 5 2 3 4 4 2 5 4 2 1 3 3 1 1 4 5 5 4 6 5 5 5 4 4 4 5 5 5 5 5 5 5 4 4 4 4 4 4 4 6 5 5 5 6 4 4 4 4 4 5 7 8 6 5 4 4 3 3 3 4 4 4 2 2 3 2 3
4 4 5 6 9 5 4 4 3 0 5 3 5 4 3 6 3 2 8 8 6 2 4 4 4 5 5 4 5 7 7 4 4 5 5 4 3 4 5 5 6 6 7 5 5 5 5 5 6 5 5 5 5 5 4 4 4 2 4 4 5 4 5 5 5 5 4 3 3 2 2 3 4 4 4 4 3 3 3 3 3 3 3 2 2 3 3
2 3 6 7 7 7 5 6 6 4 3 6 4 3 2 8 7 4 7 10 6 3 2 2 3 4 7 12 12 8 6 9 8 7 4 3 1 2 1 3 4 6 6 6 7 6 5 4 4 4 4 5 5 4 3 3 4 3 4 4 3 4 4 3 3 2 2 2 1 3 3 2 2 2 1 1 2 3 4 4 4 3 1 2 3 3 3
1 1 4 3 5 7 7 6 8 9 5 7 4 4 3 3 5 2 8 7 2 4 6 3 6 10 12 10 8 8 8 7 8 8 7 7 6 2 0 2 3 4 3 5 6 6 5 5 5 5 4 3 4 4 3 3 3 4 5 4 3 2 2 0 1 1 2 1 2 4 2 3 2 1 0 0 1 2 2 3 4 1 3 4 4 3 3
2 2 3 4 4 5 4 4 6 3 5 5 4 8 11 5 4 5 6 2 1 2 3 8 8 9 10 9 6 5 7 7 7 7 5 6 6 6 4 3 6 8 7 8 6 4 5 5 6 4 6 5 4 4 5 4 3 3 3 3 2 1 1 1 2 3 2 3 4 3 4 4 2 2 2 1 2 3 4 5 2 4 5 4 4 3 3
1 1 3 3 3 1 2 2 3 3 5 9 13 5 6 10 6 3 3 3 0 2 7 10 7 10 8 7 6 5 5 6 6 6 6 6 6 8 8 6 7 8 7 8 8 9 4 3 4 3 4 5 4 3 3 3 4 3 2 0 1 1 0 0 0 2 3 3 4 2 1 1 2 2 3 2 1 0 1 2 2 3 3 3 3 3 4
3 1 3 2 1 5 2 2 2 7 14 17 16 10 9 8 6 5 6 5 5 4 3 3 4 6 5 8 11 11 8 6 6 5 6 7 6 6 7 9 7 5 6 6 5 6 9 6 4 5 6 5 4 4 3 3 1 4 4 3 1 1 2 2 0 0 2 4 4 3 3 4 4 3 2 1 1 1 2 2 1 0 2 3 4 4 4
2 2 2 2 4 3 3 1 5 2 6 5 11 12 9 8 6 3 5 4 4 5 5 3 1 4 5 8 10 9 8 7 6 7 6 5 5 6 6 6 6 8 8 5 3 0 2 2 5 4 3 4 5 3 3 4 3 3 3 2 1 1 1 2 1 1 1 2 2 3 3 3 3 2 2 1 1 2 2 3 1 1 0 1 2 3 3
5 4 6 6 1 1 5 3 4 3 2 2 2 6 2 3 4 4 3 4 5 7 6 5 4 2 1 10 7 6 5 5 5 5 5 4 4 4 5 6 6 4 2 3 4 2 1 3 5 5 5 4 4 4 5 3 3 3 3 3 3 2 2 3 3 3 3 3 4 4 4 3 2 1 1 0 1 0 3 4 4 4 4 3 3 0 3
6 6 1 1 2 5 1 2 3 1 2 2 2 9 2 4 5 3 4 4 4 5 5 8 6 1 8 9 6 7 6 4 5 4 4 4 3 2 2 3 2 1 3 2 2 4 8 4 1 1 2 3 3 3 3 3 3 2 2 1 1 2 1 2 3 3 1 3 5 4 4 4 4 3 2 1 1 1 1 1 4 4 3 4 3 1 2
3 3 5 3 5 2 2 7 6 7 5 2 3 6 2 3 3 5 2 4 4 2 3 4 7 8 4 2 4 6 6 6 5 6 5 3 1 1 1 0 1 3 3 0 2 3 3 4 6 3 4 1 3 5 5 4 1 2 2 3 1 0 1 1 1 0 1 2 3 4 4 4 4 4 4 3 1 2 1 1 1 2 2 2 2 4 3
1 5 3 2 2 1 2 4 6 7 8 2 6 1 1 3 5 5 3 5 5 5 3 2 7 6 2 3 5 4 4 3 5 6 8 9 7 6 4 4 4 4 5 7 6 5 3 4 4 3 4 2 2 5 5 4 2 3 4 4 4 3 3 3 3 3 2 2 2 2 3 3 3 4 3 1 1 1 1 3 3 4 3 3 2 3 4
3 4 3 2 1 2 2 4 7 9 2 2 2 4 1 2 4 5 4 6 4 4 5 4 4 1 1 2 4 4 4 6 7 6 5 5 6 5 5 6 5 5 5 5 6 7 8 8 8 6 5 3 3 5 5 4 5 6 6 5 5 5 3 3 2 2 1 1 2 3 4 4 3 2 2 3 2 2 2 4 4 4 4 3 4 4 4
2 1 4 1 1 2 3 7 4 4 2 2 4 2 1 2 3 3 5 6 5 4 4 2 1 3 3 3 2 5 5 4 3 2 4 5 7 7 6 6 5 5 5 5 5 6 6 8 9 8 5 4 6 4 4 5 7 7 5 5 5 5 5 5 3 2 3 3 1 2 1 0 2 4 3 1 3 4 3 4 4 4 3 3 4 4 4
2 4 4 2 3 2 3 5 5 7 5 0 1 2 3 2 2 4 4 3 3 3 4 3 4 5 6 5 4 4 4 5 6 7 5 4 3 5 7 10 7 4 4 4 5 4 5 6 8 9 8 6 5 4 4 7 7 5 5 5 5 5 5 5 4 3 2 2 2 1 1 1 1 3 2 1 2 3 4 4 5 4 4 3 4 4 4
3 2 3 1 2 2 5 5 4 2 2 1 1 3 3 3 3 3 4 3 1 2 2 4 5 4 4 6 6 7 7 6 6 5 6 5 5 3 3 3 6 6 5 3 4 4 4 5 6 6 6 8 7 5 7 8 5 4 3 3 3 4 4 5 4 4 4 4 3 2 3 2 2 3 3 3 4 3 4 5 6 5 4 4 4 4 4
3 2 3 5 5 6 6 6 4 3 1 2 2 4 2 2 2 0 1 3 3 1 1 3 3 4 5 5 5 5 6 6 6 6 6 6 6 6 5 6 5 4 4 5 5 5 4 5 5 5 4 4 5 5 5 3 2 2 2 1 1 2 3 3 3 4 4 4 4 4 4 4 3 4 3 3 4 2 3 5 6 6 6 5 5 5 4
7 7 4 1 5 6 6 5 3 3 3 3 3 3 3 2 2 1 1 2 2 3 1 3 3 3 5 5 7 7 7 7 7 6 6 6 5 6 5 5 5 4 5 4 5 5 6 4 4 4 5 4 4 5 4 4 2 1 1 0 0 1 2 2 4 3 3 3 3 3 4 3 3 4 4 4 5 5 4 5 6 7 7 6 5 5 5
3 1 4 3 2 2 3 3 2 2 3 4 4 4 3 4 4 5 5 3 4 4 4 5 5 6 6 6 6 6 6 7 8 8 8 7 6 6 6 6 5 5 4 5 5 4 5 5 4 4 4 5 6 6 5 5 4 3 2 2 2 2 2 3 3 3 4 4 4 1 1 0 1 3 4 4 4 5 5 6 4 5 6 6 6 6 5
4 3 1 3 1 4 4 5 7 6 4 4 4 3 3 4 4 4 4 4 5 4 5 5 5 6 6 6 8 7 7 7 7 7 7 8 6 6 5 5 4 4 4 4 5 5 5 6 5 4 5 6 6 6 6 5 4 4 3 4 4 4 4 4 4 3 4 6 4 3 2 3 4 2 1 4 6 7 8 8 8 7 6 6 7 7 6
1 0 2 2 4 4 3 5 4 3 3 3 4 4 4 4 5 5 5 4 3 3 4 4 4 5 6 6 6 7 7 7 7 7 8 7 6 5 4 4 4 4 5 5 5 5 6 5 5 5 7 6 5 5 5 5 4 4 4 4 4 4 4 3 4 4 4 4 4 3 3 4 4 3 1 0 2 4 4 7 9 9 8 8 7 6 7
2 1 2 2 4 6 7 6 5 4 3 3 3 4 5 5 5 5 5 6 4 3 4 5 5 5 5 6 6 8 7 6 7 8 8 6 7 8 7 6 6 6 6 6 7 7 8 6 6 6 5 5 4 4 3 3 3 4 5 5 5 5 5 5 5 5 4 4 2 4 5 6 6 5 6 7 4 1 4 4 6 9 12 8 9 8 7
1 3 2 1 2 1 3 3 3 2 3 3 5 5 4 4 4 4 5 6 6 6 5 5 6 6 6 7 7 7 7 7 8 8 8 8 9 10 9 9 9 8 8 7 7 8 8 6 6 5 5 5 6 5 4 4 3 3 3 4 4 6 4 5 6 6 6 4 5 5 6 6 6 7 4 6 11 12 7 3 7 9 8 9 14 12 11
1 3 2 2 2 0 1 3 3 5 4 5 5 4 3 3 4 4 5 5 5 5 4 5 5 6 7 8 8 10 9 9 9 9 9 9 9 10 9 8 8 9 9 7 6 6 5 6 7 7 8 8 7 7 5 5 4 3 3 3 5 6 5 5 6 5 5 4 5 6 6 5 6 7 6 6 5 11 13 9 5 8 10 13 14 11 12
2 1 2 1 3 2 0 0 3 4 4 4 3 4 4 4 5 5 5 5 5 6 7 7 7 6 7 8 8 8 10 11 11 12 12 11 11 10 9 9 10 9 9 7 7 7 7 7 8 8 9 9 6 6 6 6 5 5 5 4 5 5 5 5 5 5 4 6 6 7 8 7 6 6 7 7 7 5 8 11 12 9 8 12 13 14 13
4 2 2 2 3 2 1 3 6 5 4 4 4 4 5 6 7 6 6 5 5 5 6 6 7 7 6 8 8 8 9 10 11 12 11 10 10 10 10 10 10 9 9 9 9 9 9 10 10 9 10 10 8 8 7 7 6 7 7 7 7 6 6 6 6 3 3 5 7 8 8 9 9 8 7 8 8 8 8 6 7 10 11 9 12 15 14
2 3 4 4 3 3 5 4 1 2 3 3 3 3 4 5 6 4 2 2 3 4 5 6 6 7 7 7 8 8 9 10 11 10 9 11 13 11 9 9 10 10 11 10 9 9 11 10 9 10 11 11 10 10 9 9 9 9 9 8 7 8 12 9 7 7 4 5 6 7 7 7 7 7 7 6 8 9 10 10 8 8 6 5 5 8 10
2 1 2 3 2 1 2 4 3 2 3 4 3 3 4 3 2 3 3 4 4 4 5 5 6 8 9 7 8 9 9 10 11 11 10 10 10 10 11 12 12 11 10 9 9 9 9 9 10 11 12 11 10 10 10 10 10 11 10 9 8 7 7 9 9 7 6 7 7 7 8 7 6 6 6 7 8 6 7 8 9 9 6 5 4 6 10
3 4 3 4 4 4 4 3 4 4 3 3 2 3 2 1 2 3 3 4 4 5 6 6 6 7 8 9 8 9 9 9 9 10 9 9 9 8 8 9 9 8 7 7 8 8 8 9 9 10 11 10 10 9 9 9 9 9 9 9 8 8 7 7 7 7 7 6 7 7 6 7 7 7 6 5 4 8 7 9 8 7 7 7 7 7 7
3 3 4 3 4 5 5 4 2 1 1 1 1 0 0 0 2 4 4 4 4 4 5 6 7 7 7 7 8 8 8 8 7 7 7 7 7 6 7 8 7 6 6 6 7 8 8 9 10 10 10 10 10 10 9 10 10 10 9 9 8 8 7 7 4 3 5 6 7 9 8 7 6 8 8 8 7 6 9 8 9 9 8 7 7 8 7
4 4 4 4 5 4 6 3 2 1 0 1 2 2 3 2 3 3 4 4 4 3 5 6 7 8 7 7 7 7 6 5 6 6 6 6 7 7 8 8 8 7 7 7 8 8 8 9 9 9 10 11 10 8 8 8 8 8 8 8 7 10 11 11 8 7 6 7 7 7 8 8 8 9 9 8 7 6 7 7 7 7 7 8 8 7 6
5 5 4 3 4 5 4 3 3 1 1 1 2 3 3 3 4 4 4 3 4 4 5 6 6 8 8 7 6 7 6 6 5 6 7 8 9 9 9 8 7 6 6 7 7 7 8 8 10 11 11 10 9 9 8 8 8 8 8 8 7 6 9 12 8 9 8 9 9 8 6 10 8 8 9 8 7 8 8 8 7 6 7 7 6 6 6
4 2 1 0 0 3 3 3 3 3 3 3 4 4 4 4 4 4 3 3 4 4 3 4 5 5 7 7 7 7 7 5 5 8 10 10 11 11 10 8 7 6 5 6 6 7 8 9 11 11 11 9 10 11 9 5 3 7 6 7 6 6 7 8 10 9 9 9 8 9 5 6 10 9 9 8 7 7 7 7 6 5 5 6 5 5 5
6 5 5 4 5 4 5 4 4 3 4 4 4 4 4 4 3 3 3 2 3 4 4 4 3 4 6 7 7 8 9 9 10 10 11 11 11 11 9 8 7 6 5 6 9 9 10 10 11 11 11 9 9 11 12 11 9 8 7 7 7 7 7 7 10 9 9 8 8 9 9 8 8 9 9 9 8 5 6 6 6 6 5 5 5 4 5
6 5 5 5 4 3 5 6 5 4 3 4 4 4 5 4 3 4 3 3 3 3 3 3 3 3 4 6 8 9 10 11 11 11 11 11 10 10 8 7 5 5 7 9 10 11 11 11 11 12 10 11 10 10 11 13 11 10 11 11 10 9 8 7 8 9 9 9 9 9 9 9 8 7 8 8 7 6 6 6 6 6 6 5 4 4 4
6 5 4 3 4 4 4 3 3 4 4 4 5 5 6 5 3 3 3 3 4 4 3 3 2 1 2 4 6 9 10 10 10 9 10 11 11 8 7 6 9 10 10 11 12 12 12 11 15 16 9 10 11 12 11 11 12 12 12 11 11 11 11 10 10 10 10 10 9 8 8 8 8 7 7 7 6 6 6 5 5 5 5 4 4 5 4
6 6 4 5 5 5 5 4 4 4 4 4 4 4 6 5 4 4 3 3 3 4 4 3 2 2 1 2 4 4 5 7 7 7 7 7 7 7 6 9 12 10 10 11 12 11 11 11 15 14 10 9 10 11 13 15 9 9 10 10 10 10 11 11 10 10 10 8 8 8 8 7 6 6 6 6 6 5 6 5 5 5 4 4 4 5 5
6 5 5 4 5 4 5 5 5 4 4 4 3 3 4 3 2 3 3 3 2 3 2 1 2 2 0 0 3 5 5 6 7 8 8 8 7 6 9 11 10 9 9 8 10 9 9 11 13 9 9 9 9 10 13 17 15 11 10 11 11 10 10 10 10 9 9 8 7 7 7 6 6 5 5 5 5 6 6 6 6 5 5 5 5 5 6
3 3 4 4 3 3 4 4 4 4 4 4 4 1 1 1 3 4 3 2 2 2 2 3 3 4 3 3 4 4 5 5 5 6 7 7 7 7 8 7 7 6 5 7 7 7 8 10 8 9 9 8 9 9 11 14 14 10 10 10 11 10 10 10 9 9 8 8 7 7 6 6 6 6 6 6 6 6 7 7 7 6 7 6 6 6 6
5 4 5 4 4 4 4 4 4 4 4 4 3 1 0 2 3 4 3 2 1 0 2 3 4 4 3 4 4 4 4 4 4 5 6 5 6 6 6 9 10 9 9 10 8 7 10 13 10 8 8 8 8 7 8 11 11 9 9 9 9 9 9 9 9 8 8 8 8 8 8 7 7 7 7 7 7 7 6 7 7 7 7 7 6 6 7
6 5 4 4 5 4 4 4 5 6 4 4 3 2 2 3 2 3 2 2 3 1 1 3 3 3 3 3 4 4 3 4 4 5 4 3 6 7 8 9 8 8 9 9 8 8 10 9 9 8 8 8 8 8 8 11 10 8 8 8 8 8 8 8 8 8 8 8 8 8 7 7 8 9 8 8 8 7 7 7 7 6 6 7 6 6 6
6 6 5 5 5 5 5 5 4 4 5 5 4 3 2 3 4 3 2 2 2 1 2 2 4 4 3 4 4 3 3 3 3 4 5 6 6 5 7 7 7 7 11 11 10 9 8 9 9 8 8 7 8 11 11 9 8 8 8 8 8 8 9 9 9 8 8 8 8 7 7 8 8 8 8 8 8 7 7 7 7 7 6 6 6 6 6
5 7 7 7 6 6 5 5 5 6 5 4 4 4 3 4 4 3 3 3 3 3 2 2 3 4 3 4 4 4 3 2 2 3 3 4 3 3 4 4 5 7 11 9 8 7 8 7 8 8 11 10 8 11 11 9 8 9 8 8 9 9 9 8 8 8 8 8 8 8 7 7 7 7 8 8 7 7 7 7 7 6 6 6 6 6 6
6 7 7 7 7 6 6 5 5 3 4 5 5 4 4 3 4 4 4 3 3 2 3 3 4 4 4 4 4 4 3 2 2 2 4 5 5 5 4 5 5 7 11 8 7 7 7 7 8 11 15 15 14 12 8 7 8 8 8 8 8 8 8 8 8 8 8 8 8 7 7 7 7 7 7 7 7 7 6 6 6 6 5 5 6 5 5
7 7 8 8 7 5 5 5 4 4 6 4 4 4 5 4 4 4 4 4 3 2 2 3 4 5 4 3 4 3 3 2 2 2 4 5 5 5 4 4 6 6 8 9 7 7 7 7 11 14 12 14 14 12 8 8 7 7 8 8 8 8 8 8 8 8 8 8 8 7 7 7 7 6 6 6 6 6 6 6 5 5 5 5 5 5 5
7 7 7 7 7 6 6 5 4 3 4 4 5 4 4 4 4 4 4 4 4 3 3 4 5 5 5 5 4 3 2 2 1 1 2 2 4 2 1 4 4 5 9 9 6 6 6 11 14 13 13 13 12 9 8 8 7 8 8 8 8 8 8 7 8 7 7 7 7 7 7 6 6 6 6 5 5 5 5 6 5 5 5 5 4 4 4
7 6 6 6 6 5 4 3 2 3 4 4 5 5 4 4 4 4 5 5 5 4 4 4 4 4 5 7 7 6 4 2 1 1 1 1 1 1 2 4 6 8 7 6 6 6 6 7 9 12 12 12 10 7 7 7 7 7 8 7 7 7 7 7 7 6 6 6 6 6 6 6 5 5 6 6 6 5 5 5 5 4 4 5 5 5 4
8 8 7 7 7 6 4 3 3 3 4 8 7 7 5 4 4 4 4 4 4 4 4 4 4 4 4 4 4 5 6 6 4 1 2 0 2 3 3 3 4 7 8 7 8 8 11 11 11 11 11 10 7 6 7 7 7 7 7 7 7 6 6 6 6 5 6 6 6 5 5 5 5 5 5 5 5 5 4 4 4 4 4 4 4 3 4
7 8 8 7 6 5 4 4 4 4 5 5 5 6 6 5 5 4 4 4 5 4 4 4 4 4 4 4 5 5 3 3 3 3 4 2 3 4 3 4 6 7 6 6 6 5 8 10 10 10 9 8 6 6 6 6 6 6 6 6 5 6 6 6 5 5 6 6 5 5 5 5 5 5 5 5 5 5 5 5 4 3 3 4 4 4 4
7 6 6 6 6 6 6 6 7 7 6 4 6 6 6 5 6 7 6 6 6 6 5 4 4 5 5 5 4 5 5 3 4 3 3 3 2 3 3 3 3 5 6 6 5 5 7 9 8 8 6 4 6 6 6 6 6 5 5 6 6 6 6 6 6 7 6 5 6 5 5 5 5 6 5 4 4 4 4 4 4 6 8 5 4 4 3
6 7 7 7 8 8 7 8 8 8 7 6 6 6 6 7 8 7 7 7 6 6 5 4 3 3 4 4 4 4 4 4 5 5 4 2 1 2 3 3 3 4 4 5 5 5 6 4 5 5 5 4 4 5 5 6 5 5 5 4 4 6 6 6 6 5 5 5 5 5 5 5 5 5 5 5 5 4 4 5 4 4 4 4 4 3 3
7 7 8 7 8 8 7 7 7 6 6 6 5 6 7 8 7 7 6 7 8 7 7 6 5 5 3 4 6 5 4 5 4 4 3 2 2 3 4 5 3 3 4 4 3 5 5 5 5 6 5 5 4 5 5 6 5 5 4 4 4 4 5 5 6 5 4 5 5 5 6 5 5 6 5 5 5 5 5 4 4 4 4 4 4 4 3
Wind_Direction
112 106 66 50 76 68 52 27 9 1 5 60 82 36 206 129 141 193 264 81 74 326 336 320 344 275 149 125 91 81 134 98 53 82 138 140 132 126 119 123 125 131 135 127 113 110 115 109 106 113 109 100 89 82 92 109 113 126 135 127 131 136 134 131 137 154 167 173 166 170 176 176 179 191 200 202 208 208 202 219 223 233 231 208 185 191 202
47 32 42 45 52 30 50 31 8 108 79 86 107 80 49 101 116 160 129 94 80 13 338 11 341 2 66 65 70 53 40 34 77 79 58 39 50 108 138 141 133 130 131 128 130 122 117 125 131 127 121 120 121 118 111 102 99 124 107 119 129 137 148 160 160 179 169 162 168 171 167 184 190 185 195 209 209 224 228 222 230 240 242 230 207 206 210
348 339 45 58 65 67 46 18 21 26 89 63 40 78 46 70 62 67 87 76 50 342 326 317 350 34 60 54 45 43 47 50 54 57 55 64 73 320 324 174 165 138 127 125 124 123 120 104 105 109 128 133 129 116 114 99 105 143 118 119 130 141 168 188 178 167 161 187 202 216 229 235 263 253 221 166 195 227 245 248 246 247 225 247 242 220 202
321 321 72 37 71 80 77 26 5 356 13 63 358 50 320 116 145 113 69 55 16 301 345 2 32 55 59 65 54 44 35 43 50 51 36 24 358 324 193 49 29 359 60 108 120 115 113 117 118 124 113 104 96 112 108 113 138 129 110 121 131 156 206 167 134 184 216 177 196 239 250 251 234 230 277 196 224 233 252 266 260 240 236 241 243 228 206
257 303 80 74 52 40 12 342 308 313 53 106 91 43 27 28 132 75 104 177 280 302 307 72 42 61 62 58 45 48 39 32 38 44 44 33 24 20 11 56 67 58 41 11 358 90 110 103 101 112 119 104 119 133 122 155 123 84 82 96 95 98 219 168 202 221 220 195 221 246 243 229 221 177 168 203 245 239 237 243 229 200 232 233 249 241 211
245 309 47 40 54 42 242 249 308 249 131 98 72 36 11 13 45 93 123 148 269 3 32 71 80 71 69 79 66 75 78 54 38 29 31 38 47 42 46 47 76 76 55 50 14 342 7 64 79 84 95 123 148 148 127 129 112 120 119 36 31 302 332 279 197 170 167 146 146 175 115 71 75 82 96 142 240 283 318 348 343 310 306 262 254 240 227
188 252 28 45 204 227 228 280 329 78 97 91 95 70 38 22 31 58 58 35 25 17 55 76 112 111 99 69 60 49 39 46 48 38 28 34 34 49 56 54 44 44 61 70 61 26 347 350 22 49 45 49 49 43 43 66 76 129 121 118 133 246 234 204 173 230 118 122 135 158 160 145 120 103 105 89 101 157 159 152 160 223 260 275 268 242 225
69 56 72 119 246 208 169 308 37 74 81 92 74 53 20 14 15 33 53 13 353 2 15 31 279 157 102 73 59 54 54 53 49 32 19 22 53 54 46 49 39 44 359 3 3 266 249 322 18 35 38 45 51 20 16 58 61 36 50 52 27 49 278 276 213 207 143 148 165 161 123 93 85 71 41 56 17 340 26 13 16 50 12 187 237 256 233
175 190 155 200 235 181 6 4 2 14 29 355 113 117 35 0 355 20 43 16 12 4 5 358 3 306 22 50 18 21 46 58 55 58 28 10 27 53 61 68 47 28 39 336 320 311 33 65 44 1 346 31 41 32 38 43 55 33 48 21 355 352 302 285 256 218 163 164 183 185 145 120 125 133 109 44 349 11 17 4 359 355 339 338 332 22 207
126 132 137 25 145 202 270 229 278 252 240 245 172 108 115 348 355 357 45 23 351 11 360 6 340 2 60 28 350 338 348 19 48 52 67 31 12 354 345 349 18 357 336 66 46 4 337 342 10 224 248 60 38 28 6 10 49 60 61 10 311 306 284 262 258 277 226 159 179 187 162 170 191 199 204 242 245 173 105 354 342 338 337 332 343 357 193
98 94 142 194 173 234 217 286 295 306 307 348 138 73 95 312 341 330 51 32 341 336 14 9 27 47 59 351 299 316 335 350 9 16 17 52 86 94 304 178 19 333 320 126 162 142 208 257 273 301 329 52 45 333 307 292 347 337 329 278 227 221 284 304 304 251 155 163 179 178 184 199 180 177 202 202 210 139 123 110 45 357 10 23 355 11 7
119 147 112 164 56 96 313 284 300 308 303 360 77 128 263 322 329 327 353 26 12 348 4 58 67 79 77 326 304 305 314 348 16 24 4 357 355 360 357 358 341 323 321 346 340 336 305 271 260 243 214 205 191 229 264 283 306 270 266 264 239 199 217 237 231 236 217 192 182 167 191 216 215 212 210 170 187 179 71 82 77 53 50 52 49 20 10
38 83 85 78 99 343 294 280 294 301 308 67 96 194 228 293 3 349 36 50 30 32 37 40 71 8 215 244 258 292 341 20 9 3 11 359 353 357 2 350 349 11 0 354 321 307 306 308 306 298 304 299 232 247 261 264 250 241 236 241 270 270 226 199 221 246 252 196 199 208 200 217 223 240 225 213 172 162 127 85 77 63 61 58 61 36 28
26 106 93 138 115 237 246 277 305 326 56 62 166 224 146 98 33 9 51 37 21 28 32 19 356 271 261 266 310 1 4 351 326 356 355 359 354 345 347 356 15 359 349 350 345 334 318 309 301 296 294 282 270 247 228 236 241 242 247 245 238 244 270 285 272 246 244 252 227 256 284 6 305 290 281 224 178 153 114 96 88 88 82 73 74 57 42
31 33 90 91 82 329 197 285 15 14 88 303 293 83 55 69 53 40 23 51 353 48 3 337 325 327 337 344 344 331 334 349 341 333 340 347 346 339 340 336 338 358 344 339 342 330 327 331 328 319 303 274 256 249 244 245 243 244 246 242 223 221 233 234 239 249 254 258 281 241 245 192 200 249 281 249 216 140 111 100 104 100 93 88 87 80 60
94 48 62 95 198 290 357 60 112 30 126 188 112 93 37 351 27 12 11 355 337 356 44 342 333 322 328 333 341 338 335 333 326 326 326 326 323 321 298 282 301 321 325 317 318 319 323 325 323 318 323 306 284 256 242 246 260 259 245 241 276 274 231 211 215 221 214 211 208 206 232 226 195 218 254 245 239 200 143 130 124 117 114 109 104 106 108
97 97 94 57 73 76 66 78 94 117 78 81 97 108 118 28 331 182 23 316 319 308 347 345 320 317 319 301 302 315 303 305 306 307 306 303 301 302 300 294 294 292 295 307 312 314 315 320 319 312 311 314 312 297 274 285 244 250 266 286 215 230 260 263 238 223 217 213 217 217 223 210 232 236 243 222 234 225 139 129 137 142 158 150 147 150 141
107 77 29 65 65 64 69 71 92 76 27 7 76 92 42 324 285 287 345 290 274 293 276 336 295 289 287 298 306 309 307 304 296 292 293 294 290 286 287 290 282 267 281 289 301 302 307 315 320 312 302 287 294 283 283 299 286 239 197 146 169 219 229 235 252 269 284 280 272 260 274 292 255 231 219 210 215 210 168 161 158 152 160 155 153 153 154
82 89 2 36 100 103 98 116 137 104 47 16 22 26 14 345 349 355 353 340 337 339 338 342 322 311 313 306 298 294 296 296 294 292 288 283 279 281 289 282 287 286 278 286 286 292 299 299 304 300 301 295 276 272 263 255 259 249 231 199 214 228 246 255 272 261 235 237 249 267 18 121 202 213 202 193 186 182 172 159 149 147 147 151 153 155 163
114 175 205 301 199 135 94 62 29 19 23 31 32 33 18 14 13 16 356 360 8 1 359 339 333 316 316 316 308 305 297 292 290 289 287 287 292 291 286 294 299 300 301 291 288 286 283 283 285 286 287 286 283 274 264 259 246 230 228 228 227 231 226 222 233 228 233 233 213 150 70 106 115 100 153 162 165 173 172 166 155 154 158 169 175 174 167
22 18 315 332 183 187 83 34 42 41 52 41 36 41 41 37 32 8 354 5 333 347 332 336 336 336 331 332 327 323 316 310 306 302 301 301 300 304 319 312 313 299 293 289 277 272 268 268 272 279 280 280 283 290 288 283 263 235 239 233 231 234 235 213 225 221 219 236 221 157 113 70 56 64 88 278 227 211 207 178 161 161 185 184 182 176 159
11 114 296 350 35 315 338 355 8 20 32 65 54 37 36 36 28 2 354 339 336 348 346 358 6 1 338 338 342 333 327 326 329 330 327 333 331 322 313 308 302 295 284 277 277 277 278 271 266 264 267 271 272 272 282 298 311 298 279 268 248 237 227 220 224 219 220 227 156 143 150 136 121 75 54 67 48 209 235 219 209 193 162 175 177 161 153
194 239 249 224 149 206 243 299 333 17 14 58 50 35 34 22 5 353 2 358 3 11 2 22 11 351 338 329 332 326 325 322 318 314 317 320 320 315 312 311 307 300 294 289 286 287 289 292 278 266 263 263 269 269 269 271 288 298 310 303 282 266 243 228 222 217 223 198 161 160 162 156 140 128 99 26 30 31 16 324 181 170 176 151 153 158 153
208 209 157 150 126 113 308 342 8 18 26 64 49 31 33 16 1 14 36 31 17 358 356 354 355 336 327 326 327 317 315 314 315 311 309 309 305 302 300 296 298 302 301 304 304 301 304 303 296 291 282 274 266 264 258 253 240 245 255 262 276 268 250 242 232 220 211 167 145 151 158 156 148 139 129 98 36 23 26 32 59 145 151 149 151 142 135
161 168 155 149 116 103 143 245 59 55 42 52 53 20 13 17 24 44 40 20 12 1 346 338 333 329 322 316 312 310 310 311 310 309 310 306 302 301 303 304 298 298 295 296 294 294 293 288 288 285 283 278 273 273 270 265 254 249 241 234 244 254 261 255 238 229 200 155 163 161 162 158 160 156 146 145 122 79 31 43 53 62 112 130 128 130 128
131 135 115 76 84 64 328 49 44 34 22 27 32 18 24 40 44 43 32 15 2 350 336 323 319 318 320 312 307 303 302 301 305 307 304 302 303 301 297 294 293 290 291 291 289 288 285 283 280 279 276 276 273 265 258 252 247 243 241 236 231 234 245 245 246 233 180 179 171 179 177 174 169 170 170 156 150 140 121 100 63 52 48 76 122 127 129
63 119 89 46 21 15 45 94 107 14 23 16 31 35 43 46 33 32 1 337 337 331 324 316 315 314 312 302 298 297 296 301 308 308 304 303 302 298 293 290 287 286 287 287 287 284 284 284 281 278 277 275 268 261 256 252 247 246 241 237 233 229 230 232 232 235 199 181 187 178 168 170 168 164 158 161 151 148 148 142 134 125 127 75 52 101 121
62 34 120 139 187 190 116 103 124 100 44 25 42 47 41 50 19 341 340 333 321 316 314 310 312 315 318 318 317 318 318 319 318 310 307 306 305 304 305 304 301 297 291 287 285 285 283 283 284 283 280 276 267 256 249 245 243 241 239 232 224 219 220 224 221 219 198 184 180 174 172 169 160 149 147 151 147 140 130 126 126 127 111 92 85 56 88
37 65 84 123 141 129 123 110 67 58 32 9 49 69 45 8 309 314 304 303 307 314 320 324 321 316 326 326 325 327 325 321 318 318 315 316 319 321 319 321 310 301 297 290 291 299 299 297 292 289 286 282 278 271 262 250 242 236 227 222 218 215 212 206 207 197 180 168 159 160 154 145 136 122 121 105 116 126 126 125 122 116 117 119 104 84 65
75 100 101 90 108 116 91 81 107 100 58 1 355 255 226 218 296 288 285 300 313 321 310 325 334 330 321 324 329 326 322 321 317 316 320 327 331 324 327 327 327 351 353 345 327 313 301 295 294 293 292 293 289 278 262 251 241 236 235 223 209 204 201 193 164 136 128 138 146 143 137 131 127 129 129 133 138 136 130 132 131 129 132 128 126 128 132
79 110 113 109 97 111 119 141 127 130 74 305 344 319 301 281 262 281 292 296 309 303 315 330 330 331 335 335 332 330 328 324 328 330 337 343 346 349 348 343 345 338 328 317 312 310 307 307 306 306 308 303 297 291 273 256 243 225 219 223 213 192 187 181 161 139 130 122 123 129 135 133 137 131 129 133 134 133 125 124 125 131 135 140 143 148 148
86 81 79 113 137 134 133 149 144 181 227 270 316 296 267 275 282 288 297 304 296 296 302 314 328 344 342 333 337 344 344 344 342 353 0 2 358 354 347 339 325 314 310 314 318 315 317 319 331 329 321 317 319 306 284 253 230 214 204 199 194 169 177 162 138 139 136 137 129 127 157 139 134 128 127 131 137 137 130 127 138 146 146 145 148 148 148
118 94 49 293 98 145 160 189 169 222 229 243 241 241 260 257 256 261 272 267 293 303 294 294 311 329 340 339 348 0 1 353 5 16 12 3 356 348 341 330 320 310 317 324 326 329 336 338 329 321 320 332 354 348 344 336 182 177 168 167 160 148 149 153 138 135 130 132 135 135 140 129 130 128 124 120 117 121 130 139 144 142 143 139 139 139 153
164 176 188 195 167 172 175 218 221 222 241 248 246 255 262 263 261 269 273 260 272 285 288 281 290 316 332 351 357 7 9 17 20 12 4 357 350 343 333 324 315 305 304 351 359 357 351 342 334 330 327 334 354 9 17 28 47 65 88 91 101 104 113 118 125 121 124 121 125 122 123 116 116 121 121 123 128 145 143 141 142 139 129 116 116 129 163
156 180 178 186 190 182 176 179 202 213 223 255 279 272 259 253 255 261 271 263 245 258 269 268 275 304 323 350 9 9 14 18 11 10 2 354 344 334 325 321 322 355 10 14 10 1 347 337 339 338 345 4 16 25 32 40 48 63 70 78 79 84 84 93 101 110 109 112 115 116 118 116 119 118 123 128 138 138 131 131 135 133 126 123 126 127 130
151 170 186 187 185 180 180 186 209 225 220 231 240 255 273 279 250 252 262 240 236 249 262 265 273 292 322 355 13 15 10 6 360 355 356 352 342 330 328 353 20 21 9 8 6 355 344 339 338 343 358 15 24 34 37 46 60 60 70 76 82 84 87 90 92 93 96 105 104 104 107 110 113 116 124 127 125 127 132 129 121 108 109 117 119 108 96
163 174 182 178 189 179 185 208 221 230 240 247 261 270 271 277 273 248 228 244 253 239 253 260 283 295 46 353 357 6 16 9 1 352 344 344 342 344 353 24 28 19 12 16 347 340 335 342 337 352 8 24 26 37 38 42 53 59 66 68 74 79 85 88 86 91 89 85 88 91 90 89 87 97 116 120 123 118 108 102 92 92 92 100 98 104 105
180 178 180 185 189 189 202 220 226 231 255 293 289 248 232 250 253 183 174 222 249 267 268 285 286 295 100 159 28 33 19 13 8 356 349 350 347 358 21 32 21 10 13 352 323 329 334 338 345 8 15 20 24 33 39 44 50 53 60 62 67 69 70 71 71 69 70 70 70 74 80 85 94 95 97 101 102 102 99 96 95 98 90 84 85 89 94
154 156 158 181 196 191 215 243 249 245 235 242 258 283 308 55 128 156 174 205 249 292 36 36 30 39 59 104 75 41 24 14 9 4 358 353 347 18 36 28 22 10 336 313 318 331 345 351 2 17 22 15 22 28 35 42 48 56 58 62 64 68 67 70 70 72 70 75 76 81 82 85 92 92 90 86 87 84 85 91 91 86 84 86 84 83 82
162 166 185 180 207 236 250 264 268 266 263 231 189 174 269 87 102 129 174 207 253 276 87 61 52 48 56 88 93 67 38 25 17 12 7 351 1 13 25 25 13 0 352 346 351 353 357 5 15 25 20 17 21 29 35 44 51 55 60 65 69 69 73 77 78 77 76 78 81 78 78 77 75 76 79 80 79 79 81 80 78 81 84 80 78 81 88
183 187 199 186 216 228 239 253 269 270 265 248 222 201 170 137 143 88 93 160 220 241 118 105 88 70 67 84 114 115 85 49 33 25 3 13 30 24 35 28 351 350 353 353 354 359 9 18 19 22 20 24 26 31 43 46 51 55 56 58 62 66 68 65 68 66 68 69 68 67 70 74 74 71 71 73 71 71 72 73 73 70 74 79 77 76 79
198 184 194 207 222 229 237 243 259 290 285 240 218 192 185 152 138 152 170 129 114 157 135 106 115 106 92 82 92 106 103 77 55 38 30 45 40 27 34 13 342 352 356 1 5 11 15 20 21 25 21 29 35 38 50 55 54 55 60 59 63 64 67 65 66 62 62 63 63 65 63 67 73 74 68 70 68 69 72 74 71 68 66 70 73 73 80
194 184 192 209 222 232 239 243 243 241 239 236 201 198 190 146 141 156 125 103 106 108 118 133 112 97 89 86 84 80 66 62 54 38 46 43 54 74 59 348 346 3 7 17 14 18 22 23 27 26 27 31 39 40 54 57 57 58 59 59 62 66 68 69 70 69 67 69 66 64 63 66 68 72 73 71 70 68 68 69 72 69 69 69 75 75 75
200 195 197 201 218 228 232 240 238 211 201 222 221 201 193 169 154 155 149 130 105 114 114 113 129 123 116 109 97 91 96 99 80 55 72 49 39 29 24 21 6 10 19 23 20 23 21 27 33 35 32 32 32 37 47 56 63 65 66 65 65 67 70 71 70 71 71 72 71 70 69 70 70 71 76 79 79 74 72 72 73 72 75 73 71 73 74
202 198 201 206 216 224 227 232 225 200 207 201 204 191 186 182 174 163 145 139 143 140 117 123 139 143 140 130 121 130 133 138 158 151 91 77 67 33 348 21 20 26 24 31 30 26 25 28 35 37 40 39 40 40 44 43 49 55 65 71 73 73 72 75 75 75 77 77 75 74 72 72 73 74 77 80 83 84 84 82 78 73 72 72 71 69 63
206 205 201 202 215 222 223 220 223 196 188 186 203 217 194 181 166 168 157 150 152 163 156 152 150 154 146 138 129 119 110 104 97 155 166 156 132 160 291 23 38 38 38 39 33 29 30 37 40 41 39 39 39 44 48 51 51 51 53 56 62 66 72 74 76 79 80 81 80 78 77 77 75 74 76 77 78 84 85 83 80 70 66 69 72 72 67
201 203 204 209 218 222 224 222 198 160 169 175 189 217 231 206 180 171 175 169 156 167 156 130 131 158 158 150 149 146 134 96 26 337 338 346 21 67 48 55 58 54 49 46 42 40 39 42 45 45 45 43 44 45 45 49 52 57 60 63 61 65 66 70 71 73 72 76 79 83 81 78 77 79 77 78 81 84 89 89 92 88 79 72 70 69 68
194 199 208 211 219 221 210 215 205 189 184 202 205 203 211 193 185 183 177 163 155 159 144 132 133 132 138 149 163 164 156 144 116 306 292 42 70 96 99 91 86 75 65 51 48 38 42 48 50 51 49 48 49 49 47 48 53 56 60 59 64 64 65 66 64 67 72 75 77 78 77 80 81 82 81 82 80 77 78 83 88 90 89 88 86 83 89
195 199 204 207 213 211 205 207 214 218 222 220 201 211 202 182 183 180 177 169 157 158 158 153 143 142 137 137 142 156 183 179 143 185 226 198 126 118 131 115 91 84 75 74 60 49 44 47 45 48 50 51 53 52 53 52 54 57 59 64 65 64 63 64 66 71 76 77 75 73 75 79 81 83 85 83 82 82 83 84 83 84 89 87 82 78 71
197 194 197 203 211 215 206 205 215 221 224 207 207 212 193 163 167 205 190 177 178 172 169 172 170 160 153 148 140 148 142 124 108 131 161 176 142 123 122 118 100 95 93 88 76 64 49 50 46 48 51 55 55 57 60 62 59 58 61 60 62 60 62 69 70 71 72 73 69 69 68 73 83 93 91 87 85 83 80 80 81 87 91 89 87 86 82
187 192 201 205 207 213 207 200 205 206 210 209 200 195 182 179 196 199 189 177 161 157 182 186 191 189 166 161 161 151 148 146 153 161 174 204 207 107 120 129 120 110 95 91 91 85 74 68 61 55 52 54 61 65 68 70 69 67 66 63 61 64 65 67 74 74 72 70 68 65 67 74 83 89 89 90 86 78 70 68 65 59 60 68 72 72 72
194 195 201 201 206 212 213 214 211 205 207 206 185 175 192 198 197 205 197 170 169 176 177 162 196 227 208 181 161 168 172 162 162 164 151 135 121 119 126 128 126 119 109 104 99 93 91 86 78 73 68 62 63 67 67 67 72 71 66 63 66 68 76 79 78 80 74 69 69 66 65 73 87 91 91 88 89 87 85 80 75 70 67 62 61 63 58